STARLINK-5861 (55921 NORAD) Tracking and Keplerian Element Data

This shows tracking and keplerian element data for the satellite.

Feedback or suggestion? Click here.




ElementValue
Catalog55921
NameSTARLINK-5861
Epoch Orbit840
Epoch Day127.25001157
Epoch Year2023
RAAN41.2363
Inclination70.0015
Eccentricity0.0003194
Argument of Perigee273.5005
Mean Anonmoly57.3124
Mean Motion15.30459874
Decay Rate-0.00925205
L11 55921U 23037H 23127.25001157 -.00925205 00000+0 -34208-1 0 9995
L22 55921 70.0015 41.2363 0003194 273.5005 57.3124 15.30459874 8405



Live tracking and technical data element details for STARLINK-5861 (NORAD 55921). STARLINK-5861 can be tracked NOW for your location showing map with azimuth and elevation plus other details from your city location.







IsCatalogInMostPopularTable: catalog: 55921, numindb: 7
Update: records affected: 1



GetName: 55921 STARLINK-5861

Hit Count: updated at: Tue, 06 Jun 2023 03:03:14 GMT